Vagharshapat

Armenia     40˚09′47″N   44˚17′36″E
temp.,
°C
wind,
m/s
gust,
m/s
humid.,
%
clouds,
%
prec.,
mm/h
press.,
hPa
HPBL,
m
28 november, sat
sat2801:00nne22450 0.0 103522
04:00−1˚ne12470 0.0 103522
07:00−2˚ne11570 0.0 103422
10:00+3˚ese003416 0.0 103369
13:00+6˚sw11295 0.0 1030605
16:00+7˚ssw112911 0.0 1028606
19:00+2˚wsw11420 0.0 102922
22:00+1˚w014720 0.0 103022
29 november, sun
sun2901:00n004994 0.0 102922
04:00−1˚se015554 0.0 102922
07:00−1˚sse115941 0.0 102822
10:00+4˚sw004269 0.0 102849
13:00+6˚ssw1133100 0.0 1024352
16:00+7˚s1132100 0.0 1023269
19:00+4˚ese1143100 0.0 102422
22:00+3˚ese1147100 0.0 102522
30 november, mon
mon3001:00+2˚nne0152100 0.0 102522
04:00+1˚wnw0055100 0.0 102522
07:00−1˚ene117467 0.0 102422
10:00+3˚e115836 0.0 1024147
13:00+6˚sse22490 0.0 1022671
16:00+7˚se12500 0.0 1020719
19:00+3˚nne22680 0.0 102222
22:00+3˚nne227013 0.0 102322
1 december, tue
tue101:00+2˚nne128068 0.0 102322
04:00+1˚ne118346 0.0 102326
07:00ne018480 0.0 102327
10:00+5˚ese016685 0.0 102477
13:00+8˚s125559 0.0 1022659
16:00+8˚sse125067 0.0 1020715
19:00+4˚n12675 0.0 102322
22:00+4˚nne22632 0.0 102422
2 december, wed
wed201:00+2˚nne127210 0.0 102422
04:00+1˚nne11777 0.0 102422
07:00ne117847 0.0 102422
10:00+6˚e015739 0.0 102467
13:00+9˚ssw21481 0.0 1022567
16:00+9˚ssw11466 0.0 1020695
19:00+4˚wnw11652 0.0 102222
22:00+3˚ne11731 0.0 102422